ETHL

Laupheim Air Base

Airport
ICAO code
ETHL
Summary
ICAO Region
EUR
ICAO Territory
Location

Laupheim, Baden-Württemberg,

Coordinates
48° 13' 12" N , 9° 54' 35" E
Metar
ETHL 151920Z AUTO 25002KT 9999 // ////// 17/10 Q1011 ///

Description

Laupheim Air Base is located close to the city of Laupheim, Baden-Württemberg, Germany.

Runways

Designator Length Width Surface Rops
3/21 600 50 GRS No/No
9/27 1646 30 ASP No/No

Airport map

Aerial View

SKYbrary Partners:

Safety knowledge contributed by: